Tracking 34717 objects as of 14-Jul-2026
HD Live streaming from Space Station
objects crossing your sky now

USA 445

Track USA 445 now!
10-day predictions


NORAD ID: 62344
Int'l Code: 2024-243E
Perigee: 582.1 km
Apogee: 586.3 km
Inclination: 70.0 °
Period: 96.2 minutes
Semi major axis: 6955 km
RCS: Unknown
Launch date: December 17, 2024
Source: United States (US)
Launch site: AIR FORCE WESTERN TEST RANGE (AFWTR)
Your satellite tracking list
Your tracking list is empty




NASA's NSSDC Master Catalog

Two Line Element Set (TLE):
1 62344U 24243E   26187.95980324 0.00000000  00000-0  00000-0 0    01
2 62344  70.0165 247.5191 0003000 183.5276 176.4723 14.96713436    08
Source of the keplerian elements: McCants